Estación Meteorológica de la Universidad de Murcia
Estación Meteorológica de la Universidad de Murcia
Universidad de Murcia
 

Humedad relativaHumedad relativa

 

Máxima: 72,9 % a las 02:39:00 del día 15/06/2021
Mínima: 26,8 % a las 13:02:00 del día 15/06/2021

||Humedad máxima últimos meses|| ---- ||Humedad mínima últimos meses||


Humedad máxima

  • 1 - 72,9 % del día 15/06/2021
  • 2 - 74,8 % del día 14/06/2021
  • 3 - 74,5 % del día 13/06/2021
  • 4 - 77,7 % del día 12/06/2021
  • 5 - 86,5 % del día 11/06/2021
  • 6 - 86,5 % del día 10/06/2021
  • 7 - 86,5 % del día 09/06/2021
  • 8 - 86,5 % del día 08/06/2021
  • 9 - 86,5 % del día 07/06/2021
  • 10 - 86,5 % del día 06/06/2021
  • 11 - 86,5 % del día 05/06/2021
  • 12 - 86,5 % del día 04/06/2021
  • 13 - 86,5 % del día 03/06/2021
  • 14 - 86,5 % del día 02/06/2021
  • 15 - 86,5 % del día 01/06/2021
  • 16 - 86 % del día 31/05/2021
  • 17 - 86,5 % del día 30/05/2021
  • 18 - 86,5 % del día 29/05/2021
  • 19 - 86,5 % del día 28/05/2021
  • 20 - 86,5 % del día 27/05/2021
  • 21 - 86,5 % del día 26/05/2021
  • 22 - 86,5 % del día 25/05/2021
  • 23 - 86,5 % del día 24/05/2021
  • 24 - 86,5 % del día 23/05/2021
  • 25 - 86,5 % del día 22/05/2021
  • 26 - 86,5 % del día 21/05/2021
  • 27 - 86,5 % del día 20/05/2021
  • 28 - 86,5 % del día 19/05/2021
  • 29 - 86,5 % del día 18/05/2021
  • 30 - 85,8 % del día 17/05/2021
  • 31 - 81,3 % del día 16/05/2021
  • 32 - 86,5 % del día 15/05/2021
  • 33 - 86 % del día 14/05/2021
  • 34 - 58,5 % del día 13/05/2021
  • 35 - 63,5 % del día 12/05/2021
  • 36 - 59,5 % del día 11/05/2021
  • 37 - 86,5 % del día 10/05/2021
  • 38 - 76,9 % del día 09/05/2021
  • 39 - 84 % del día 08/05/2021
  • 40 - 86,5 % del día 07/05/2021
  • 41 - 86,5 % del día 06/05/2021
  • 42 - 86,5 % del día 05/05/2021
  • 43 - 86,5 % del día 04/05/2021
  • 44 - 86,5 % del día 03/05/2021
  • 45 - 86,5 % del día 02/05/2021
  • 46 - 86,5 % del día 01/05/2021
  • 47 - 86,5 % del día 30/04/2021
  • 48 - 86,5 % del día 29/04/2021
  • 49 - 86,5 % del día 28/04/2021
  • 50 - 86,5 % del día 27/04/2021
  • 51 - 86,5 % del día 26/04/2021
  • 52 - 86,5 % del día 25/04/2021
  • 53 - 86,5 % del día 24/04/2021
  • 54 - 86,5 % del día 23/04/2021
  • 55 - 86,5 % del día 22/04/2021
  • 56 - 86,5 % del día 21/04/2021
  • 57 - 86,5 % del día 20/04/2021
  • 58 - 86,5 % del día 19/04/2021
  • 59 - 86,5 % del día 18/04/2021

||Volver al inicio de la página||


Humedad mínima

  • 1 - 26,8 % del día 15/06/2021
  • 2 - 23,6 % del día 14/06/2021
  • 3 - 26,4 % del día 13/06/2021
  • 4 - 28,5 % del día 12/06/2021
  • 5 - 28,9 % del día 11/06/2021
  • 6 - 27,6 % del día 10/06/2021
  • 7 - 27,7 % del día 09/06/2021
  • 8 - 35,6 % del día 08/06/2021
  • 9 - 41,6 % del día 07/06/2021
  • 10 - 35,6 % del día 06/06/2021
  • 11 - 57,9 % del día 05/06/2021
  • 12 - 47,2 % del día 04/06/2021
  • 13 - 50,6 % del día 03/06/2021
  • 14 - 40,8 % del día 02/06/2021
  • 15 - 47 % del día 01/06/2021
  • 16 - 33,7 % del día 31/05/2021
  • 17 - 26,2 % del día 30/05/2021
  • 18 - 31,5 % del día 29/05/2021
  • 19 - 45,5 % del día 28/05/2021
  • 20 - 35,2 % del día 27/05/2021
  • 21 - 32,7 % del día 26/05/2021
  • 22 - 30,6 % del día 25/05/2021
  • 23 - 28,2 % del día 24/05/2021
  • 24 - 73,9 % del día 23/05/2021
  • 25 - 46,4 % del día 22/05/2021
  • 26 - 25,8 % del día 21/05/2021
  • 27 - 33,5 % del día 20/05/2021
  • 28 - 39,2 % del día 19/05/2021
  • 29 - 32,9 % del día 18/05/2021
  • 30 - 33,4 % del día 17/05/2021
  • 31 - 14,2 % del día 16/05/2021
  • 32 - 17,6 % del día 15/05/2021
  • 33 - 19,5 % del día 14/05/2021
  • 34 - 23,7 % del día 13/05/2021
  • 35 - 19,9 % del día 12/05/2021
  • 36 - 17 % del día 11/05/2021
  • 37 - 28,1 % del día 10/05/2021
  • 38 - 30,3 % del día 09/05/2021
  • 39 - 33,6 % del día 08/05/2021
  • 40 - 15,4 % del día 07/05/2021
  • 41 - 33,2 % del día 06/05/2021
  • 42 - 25 % del día 05/05/2021
  • 43 - 37,4 % del día 04/05/2021
  • 44 - 45,1 % del día 03/05/2021
  • 45 - 39,7 % del día 02/05/2021
  • 46 - 24,6 % del día 01/05/2021
  • 47 - 31,3 % del día 30/04/2021
  • 48 - 30,7 % del día 29/04/2021
  • 49 - 36,3 % del día 28/04/2021
  • 50 - 36,8 % del día 27/04/2021
  • 51 - 46,1 % del día 26/04/2021
  • 52 - 48,9 % del día 25/04/2021
  • 53 - 55,4 % del día 24/04/2021
  • 54 - 50,9 % del día 23/04/2021
  • 55 - 57,9 % del día 22/04/2021
  • 56 - 34,5 % del día 21/04/2021
  • 57 - 42,6 % del día 20/04/2021
  • 58 - 23,5 % del día 19/04/2021
  • 59 - 30,4 % del día 18/04/2021

 

|| Temperatura Ambiente|| Velocidad y dirección del viento|| Precipitación|| Radiación Solar Global y PAR|| Temperatura y humedad del suelo|| Presión atmosférica|| Más información|| Volver a la página principal|| Volver al inicio de la página||


Estación Meteorológica de la Universidad de Murcia
http://estacion.um.es/
Informacion actualizada a: 17/06/2021 a las 22:34:00